Temperature
4 4 4 4 4 4 3 3 3 3 3 3 3 4 4 4 4 4 4 4 4 4 4 4 4 4 4 4 4 4 4 4 4 4 4 4 4 4
3 3 3 3 3 3 3 3 3 3 2 3 3 3 3 3 3 3 3 3 3 3 3 3 3 3 3 3 3 3 3 3 3 3 3 3 3 3
3 2 3 3 2 3 3 2 2 2 2 2 2 2 3 3 3 3 3 3 3 3 3 3 3 3 3 3 3 3 3 3 3 3 3 3 2 2
2 2 2 2 2 2 2 2 2 2 2 2 2 2 2 2 2 2 2 2 2 2 2 2 2 2 2 2 2 2 2 2 2 2 2 2 2 2
1 1 1 2 1 1 1 1 1 1 1 1 1 1 1 1 1 2 2 2 1 1 1 1 1 1 1 1 2 2 2 2 2 2 2 2 1 1
1 1 1 1 1 1 0 1 1 1 1 1 1 1 1 1 1 1 1 1 1 1 1 1 1 1 1 1 1 1 1 1 1 1 1 1 1 1
0 0 -0 -0 -0 -0 -0 -0 0 0 0 -0 -0 -0 -0 -0 -0 0 0 0 0 0 0 0 0 1 1 1 1 1 1 0 0 0 1 0 0 0
-1 -1 -1 -0 -0 -0 -0 -0 -0 -0 -0 -0 -1 -1 -1 -1 -1 -1 -1 -1 -1 -0 -0 0 -0 0 0 0 0 0 -0 -0 -0 0 -0 -0 -0 -0
-1 -1 -1 -1 -1 -1 -1 -1 -1 -1 -1 -1 -1 -1 -1 -1 -1 -1 -1 -1 -1 -1 -1 -1 -0 -0 -0 -0 -0 -1 -1 -1 -1 -1 -1 -1 -1 -1
-2 -2 -2 -2 -2 -2 -1 -1 -1 -1 -1 -1 -2 -1 -2 -2 -2 -2 -2 -2 -1 -2 -2 -1 -1 -1 -1 -1 -1 -1 -1 -1 -1 -1 -1 -1 -1 -1
-2 -2 -2 -2 -2 -2 -2 -2 -2 -2 -2 -2 -2 -2 -2 -2 -2 -2 -2 -2 -2 -2 -2 -2 -2 -1 -1 -1 -1 -2 -2 -2 -2 -2 -2 -2 -2 -2
-2 -2 -3 -3 -3 -3 -3 -2 -2 -2 -2 -2 -2 -2 -2 -2 -2 -2 -2 -3 -3 -3 -3 -3 -2 -3 -2 -2 -2 -2 -2 -2 -2 -2 -2 -2 -2 -2
-3 -3 -3 -3 -3 -3 -3 -3 -3 -3 -3 -3 -3 -3 -3 -3 -3 -3 -3 -3 -3 -3 -3 -3 -3 -3 -3 -3 -2 -2 -2 -2 -2 -2 -2 -2 -3 -3
-3 -3 -3 -3 -3 -3 -3 -3 -3 -3 -3 -3 -3 -3 -3 -3 -3 -3 -3 -3 -3 -3 -3 -3 -3 -3 -3 -4 -3 -3 -3 -3 -3 -2 -2 -3 -3 -3
-4 -4 -4 -4 -4 -4 -3 -3 -3 -3 -3 -3 -4 -4 -4 -4 -3 -3 -3 -3 -3 -3 -3 -3 -4 -4 -4 -4 -4 -3 -3 -3 -3 -3 -3 -3 -3 -3
-4 -4 -4 -4 -4 -4 -4 -4 -4 -4 -4 -4 -4 -4 -4 -4 -4 -4 -4 -4 -4 -3 -4 -4 -4 -4 -4 -4 -4 -4 -4 -4 -4 -3 -3 -3 -3 -3
-4 -4 -4 -4 -4 -4 -4 -4 -4 -4 -4 -4 -5 -5 -5 -5 -5 -5 -4 -4 -4 -4 -4 -4 -4 -4 -4 -4 -4 -4 -4 -4 -4 -4 -4 -3 -3 -3
-4 -5 -5 -5 -5 -5 -5 -5 -5 -5 -5 -5 -5 -5 -5 -5 -5 -5 -5 -5 -5 -5 -5 -4 -4 -4 -4 -4 -4 -4 -4 -4 -4 -4 -4 -4 -4 -3
-5 -5 -5 -5 -5 -5 -5 -5 -5 -5 -5 -5 -5 -5 -6 -6 -6 -5 -5 -5 -5 -5 -5 -5 -5 -5 -5 -5 -5 -4 -5 -4 -4 -4 -4 -4 -4 -4
-5 -5 -5 -5 -5 -5 -6 -6 -6 -6 -6 -6 -6 -6 -6 -6 -6 -6 -6 -6 -6 -6 -5 -5 -5 -5 -5 -5 -5 -5 -5 -5 -5 -4 -4 -4 -4 -4
-5 -6 -6 -6 -6 -6 -6 -6 -6 -6 -6 -6 -6 -6 -6 -6 -6 -6 -6 -6 -6 -6 -6 -5 -5 -5 -5 -5 -5 -5 -5 -5 -5 -5 -4 -4 -4 -4
-6 -6 -6 -6 -6 -6 -6 -6 -6 -6 -6 -6 -6 -6 -6 -6 -6 -6 -6 -6 -6 -6 -6 -6 -5 -5 -6 -5 -5 -5 -5 -4 -4 -4 -5 -5 -5 -5
-6 -6 -6 -6 -6 -6 -6 -6 -6 -6 -6 -6 -6 -6 -6 -7 -6 -6 -7 -6 -6 -6 -6 -6 -6 -6 -6 -6 -5 -5 -5 -5 -5 -4 -4 -4 -5 -5
Wind_Speed
4 4 4 3 3 2 2 2 3 3 4 3 2 2 3 3 5 5 6 9 10 11 11 11 11 11 12 12 12 13 13 13 13 13 14 14 15 15
4 4 4 3 3 3 3 2 2 3 4 2 2 3 3 4 6 5 7 9 10 10 11 11 11 12 12 12 13 13 12 12 12 13 14 14 15 15
4 4 5 4 3 3 2 3 2 2 5 4 3 3 3 3 4 5 6 6 8 10 10 11 11 11 11 12 12 12 12 12 13 13 14 14 14 14
5 5 5 4 4 3 3 3 3 2 3 5 4 3 4 3 3 3 4 6 6 9 10 11 11 11 12 12 12 11 12 13 13 13 13 13 13 14
4 5 4 4 4 3 3 3 3 3 2 3 4 3 3 3 3 3 4 4 6 8 9 10 12 12 12 12 11 11 12 12 12 12 13 13 13 13
3 4 4 4 4 3 3 3 2 2 2 3 4 3 3 3 2 3 4 3 4 6 7 9 10 11 11 11 11 11 11 11 11 12 13 13 13 13
3 3 3 3 4 4 3 2 2 2 3 3 4 4 3 2 3 3 4 4 5 4 4 5 6 5 6 9 10 11 11 11 11 12 12 12 12 12
3 2 2 2 3 5 5 4 4 4 4 4 5 5 5 4 3 3 3 4 5 2 3 5 4 4 4 5 9 10 10 11 12 12 12 12 12 12
2 2 2 2 3 2 3 4 5 6 6 6 6 6 5 5 4 4 4 5 5 4 3 5 3 4 4 6 9 10 11 11 11 11 11 12 12 12
2 2 2 2 2 2 2 2 2 4 5 4 4 5 5 4 5 5 4 4 4 3 2 4 4 5 5 5 9 11 11 11 11 11 11 12 12 12
1 2 2 2 3 3 2 2 2 3 4 5 6 6 6 7 5 2 2 3 5 4 2 2 4 5 4 4 6 8 9 10 11 11 11 11 11 11
1 2 3 4 4 4 2 2 3 3 2 3 3 4 4 4 5 3 3 3 4 4 2 2 3 3 4 3 2 3 5 8 10 11 11 11 10 7
2 1 2 4 4 4 3 2 3 3 1 1 2 2 2 2 2 2 2 3 3 4 3 2 3 3 4 4 4 3 3 4 5 7 9 10 10 8
1 1 2 4 4 4 3 2 3 2 1 1 1 2 2 2 2 2 2 2 3 4 4 3 3 3 4 5 5 4 3 3 3 4 5 7 8 9
1 2 3 3 3 2 2 2 2 0 0 1 2 2 2 2 2 2 2 2 2 3 4 3 3 3 4 5 5 5 5 4 3 3 4 4 4 4
2 3 4 3 3 2 2 2 1 0 1 1 2 2 2 1 2 2 2 2 3 3 3 3 3 3 4 5 5 6 5 4 4 4 5 5 4 4
2 1 1 1 1 1 1 1 1 1 1 1 1 2 2 2 2 2 2 2 2 3 4 3 3 2 3 4 5 5 5 4 5 5 5 5 5 4
2 1 1 1 1 1 1 1 1 1 1 1 1 2 2 2 2 2 2 2 2 3 3 3 3 3 3 2 3 4 4 4 5 5 4 4 5 5
2 1 1 1 1 1 1 1 1 2 2 1 2 2 2 2 2 2 2 2 2 3 3 3 3 3 4 5 3 2 3 5 5 5 4 3 5 5
2 1 2 2 1 1 1 1 1 2 1 2 2 2 2 2 2 2 2 2 3 3 3 3 3 3 3 4 4 5 5 4 4 5 5 4 3 5
2 2 2 2 2 2 1 1 1 1 2 2 2 2 2 1 2 2 2 3 3 3 3 4 4 5 3 2 3 4 4 5 5 4 4 4 4 3
3 3 2 2 2 2 2 1 1 2 2 2 2 2 2 2 2 2 2 2 2 3 3 3 4 3 2 3 4 5 5 6 7 7 5 3 2 1
3 3 2 2 2 2 2 2 2 2 2 2 2 2 2 2 2 2 2 2 2 3 3 3 3 3 3 3 3 4 5 6 5 5 4 6 5 6
Wind_Direction
231 232 235 241 238 248 248 221 219 256 263 249 260 273 292 275 272 268 265 267 269 271 272 276 280 284 287 286 286 289 291 293 296 298 300 301 303 305
233 233 236 241 236 234 235 241 232 238 260 260 267 279 293 295 286 284 278 278 274 272 274 277 281 284 285 286 286 287 289 292 295 295 296 298 299 302
232 231 237 238 245 241 244 244 250 245 262 284 289 297 290 279 291 288 287 285 280 275 275 280 284 286 287 289 288 290 291 292 293 294 295 296 298 299
231 232 236 235 240 239 238 241 244 250 257 276 286 288 283 274 271 275 292 286 283 280 276 282 285 287 288 290 290 291 292 293 294 295 296 297 298 299
234 233 232 226 238 240 239 242 247 256 250 259 274 276 280 278 279 284 284 286 290 291 286 285 287 287 288 290 292 291 293 294 295 295 295 296 298 299
244 238 233 223 229 233 242 241 249 251 250 253 266 271 274 281 274 285 295 292 294 294 292 294 291 287 288 292 293 293 294 295 297 297 296 295 296 297
247 237 235 234 250 252 256 245 241 244 256 256 266 278 276 288 278 282 288 298 292 272 289 289 288 282 287 290 293 295 294 294 297 301 302 299 298 299
245 241 239 237 252 265 270 269 261 247 245 251 260 262 265 271 281 281 287 298 287 279 288 290 276 274 275 280 291 293 291 293 296 299 301 302 302 301
243 242 264 260 271 246 267 279 284 277 264 254 250 255 258 255 262 270 269 277 275 280 291 287 285 281 283 292 292 290 292 295 299 301 304 305 305 302
244 236 238 248 260 252 250 268 274 282 273 263 248 255 258 253 245 254 264 284 291 287 271 277 289 288 292 280 288 286 290 297 303 305 308 309 309 306
263 265 253 246 268 280 268 260 278 287 296 293 293 288 285 282 276 263 259 282 288 284 267 269 289 299 293 282 287 291 297 301 305 309 311 311 312 312
268 271 266 257 270 274 247 240 259 270 289 310 311 309 305 298 290 258 237 260 280 278 262 272 288 308 303 289 283 299 304 303 306 309 310 311 313 317
246 251 259 267 277 283 280 246 257 281 278 285 296 299 303 296 294 284 257 252 264 271 272 284 287 291 281 293 301 303 305 308 314 313 310 310 312 312
247 249 261 274 282 288 287 274 292 314 285 281 286 297 303 306 310 309 296 283 275 271 275 267 269 278 288 293 295 306 312 313 314 310 307 309 313 312
283 294 300 302 310 309 305 312 322 323 258 272 287 297 301 296 316 336 336 338 331 315 300 280 271 278 278 279 289 299 306 307 308 306 307 306 304 309
331 334 329 326 325 329 333 336 337 273 283 270 291 304 317 326 330 325 317 323 328 321 322 308 295 282 282 282 283 291 298 298 307 309 308 307 303 300
328 346 342 331 349 6 8 357 356 342 323 296 302 318 322 323 320 320 314 322 314 315 325 329 332 317 285 277 283 290 298 300 300 305 309 311 307 301
348 16 353 347 349 344 341 343 350 346 326 316 313 308 314 320 323 328 326 325 317 316 320 322 328 327 318 305 272 282 295 302 309 309 304 307 313 318
10 16 352 342 337 335 336 342 339 339 335 323 313 311 317 321 327 327 323 324 322 321 323 323 322 322 322 321 321 314 308 307 310 311 310 304 302 309
14 351 333 328 328 329 331 334 331 334 334 326 324 318 316 321 324 320 316 318 319 323 324 325 323 317 303 300 302 309 311 301 304 309 313 314 306 307
358 353 342 336 335 329 327 325 322 326 325 325 331 333 324 317 316 314 312 316 322 320 318 315 308 314 307 307 312 317 320 320 311 301 306 317 321 331
342 336 333 333 332 330 331 333 333 336 335 331 332 332 327 316 310 312 314 314 316 316 317 319 327 333 336 328 323 324 329 333 336 332 321 298 286 307
324 323 322 327 331 332 335 336 332 330 328 327 329 331 331 327 321 316 315 316 316 319 327 335 342 345 336 325 325 329 329 331 336 345 340 334 314 296
Height
1477 1478 1479 1480 1481 1482 1483 1484 1485 1483 1482 1482 1483 1484 1484 1483 1483 1483 1482 1482 1481 1481 1480 1479 1478 1477 1476 1475 1474 1473 1472 1470 1469 1467 1466 1465 1463 1461
1473 1473 1474 1476 1477 1478 1478 1479 1480 1480 1478 1478 1479 1479 1479 1479 1479 1478 1477 1477 1476 1476 1475 1474 1473 1472 1471 1470 1469 1468 1466 1465 1464 1462 1461 1459 1458 1456
1468 1469 1470 1471 1472 1473 1474 1475 1475 1475 1474 1473 1474 1474 1474 1474 1473 1473 1472 1472 1471 1471 1470 1469 1468 1467 1466 1465 1464 1463 1461 1460 1458 1457 1455 1454 1452 1451
1463 1464 1465 1466 1467 1468 1469 1470 1470 1470 1470 1469 1469 1469 1469 1469 1468 1468 1468 1467 1466 1466 1465 1464 1463 1462 1461 1460 1458 1457 1456 1455 1453 1451 1450 1448 1447 1446
1459 1459 1460 1461 1462 1463 1464 1465 1465 1465 1466 1465 1464 1464 1464 1464 1464 1463 1463 1462 1461 1461 1460 1459 1458 1457 1456 1455 1453 1452 1451 1449 1448 1446 1444 1443 1442 1440
1454 1455 1456 1456 1457 1458 1459 1460 1460 1461 1461 1461 1460 1460 1460 1459 1459 1458 1457 1457 1456 1456 1455 1454 1453 1452 1451 1450 1448 1447 1446 1444 1443 1441 1439 1438 1436 1435
1450 1451 1451 1452 1453 1454 1455 1455 1455 1456 1456 1456 1455 1455 1455 1454 1454 1453 1453 1452 1451 1451 1450 1449 1448 1446 1446 1444 1443 1441 1440 1439 1437 1436 1434 1432 1431 1429
1446 1446 1447 1448 1449 1449 1450 1451 1452 1452 1452 1452 1451 1451 1450 1450 1450 1449 1449 1447 1446 1447 1445 1444 1443 1441 1441 1439 1438 1437 1435 1434 1432 1430 1429 1427 1426 1424
1442 1442 1443 1444 1445 1445 1446 1446 1447 1447 1448 1448 1446 1446 1445 1445 1446 1445 1444 1443 1442 1442 1441 1439 1438 1436 1436 1435 1434 1432 1431 1429 1428 1426 1424 1423 1421 1419
1438 1439 1440 1440 1440 1441 1441 1442 1442 1442 1443 1442 1442 1441 1441 1441 1442 1441 1440 1439 1438 1438 1437 1435 1433 1432 1431 1430 1429 1427 1426 1425 1423 1421 1420 1418 1416 1415
1435 1436 1436 1436 1437 1437 1438 1438 1438 1438 1438 1438 1438 1437 1437 1437 1437 1437 1436 1435 1433 1432 1433 1432 1429 1427 1426 1424 1423 1422 1421 1420 1418 1417 1415 1413 1412 1410
1432 1433 1433 1433 1434 1434 1434 1434 1434 1434 1434 1433 1433 1433 1433 1432 1432 1432 1432 1431 1429 1429 1428 1428 1426 1424 1421 1419 1419 1418 1417 1415 1414 1412 1410 1409 1408 1406
1430 1430 1430 1430 1431 1431 1431 1431 1431 1431 1430 1430 1429 1429 1428 1428 1428 1428 1428 1427 1426 1425 1425 1425 1423 1422 1420 1417 1415 1414 1413 1411 1409 1407 1406 1405 1404 1402
1428 1428 1427 1428 1428 1428 1428 1428 1428 1428 1427 1426 1426 1425 1425 1424 1424 1424 1424 1423 1423 1422 1421 1421 1420 1419 1417 1414 1412 1409 1408 1407 1406 1404 1402 1401 1400 1399
1426 1425 1425 1425 1425 1425 1425 1425 1425 1424 1424 1423 1422 1422 1422 1421 1421 1420 1420 1420 1419 1418 1418 1417 1417 1415 1414 1412 1409 1407 1405 1403 1402 1401 1399 1397 1396 1394
1423 1423 1423 1423 1422 1422 1422 1422 1422 1421 1421 1420 1420 1419 1419 1418 1418 1417 1417 1416 1415 1414 1414 1414 1413 1412 1410 1409 1407 1405 1403 1401 1399 1398 1396 1394 1392 1391
1421 1421 1421 1421 1420 1419 1419 1419 1419 1418 1418 1418 1417 1417 1416 1416 1415 1415 1414 1413 1412 1411 1411 1411 1410 1409 1408 1406 1404 1402 1401 1399 1397 1395 1393 1390 1389 1387
1420 1419 1419 1418 1418 1417 1417 1417 1417 1416 1416 1416 1415 1415 1414 1414 1413 1413 1412 1412 1411 1410 1409 1408 1407 1406 1405 1403 1403 1400 1398 1396 1395 1393 1391 1388 1386 1385
1418 1417 1417 1417 1416 1416 1415 1415 1415 1415 1414 1414 1413 1413 1412 1412 1411 1410 1410 1409 1409 1408 1407 1407 1406 1404 1403 1400 1399 1399 1397 1394 1393 1391 1388 1386 1384 1382
1417 1416 1416 1415 1415 1414 1414 1413 1413 1413 1412 1412 1411 1411 1410 1410 1409 1409 1408 1408 1407 1406 1405 1405 1404 1403 1402 1401 1398 1396 1395 1393 1391 1389 1386 1385 1383 1382
1415 1415 1414 1414 1413 1413 1412 1412 1411 1411 1410 1410 1409 1409 1409 1408 1408 1407 1407 1406 1405 1404 1404 1403 1403 1402 1401 1399 1397 1395 1393 1392 1390 1388 1385 1383 1381 1379
1414 1413 1413 1412 1412 1411 1410 1410 1409 1409 1408 1408 1408 1407 1407 1407 1406 1406 1405 1404 1404 1403 1403 1402 1401 1400 1399 1398 1396 1394 1392 1390 1388 1387 1385 1383 1381 1379
1412 1412 1411 1410 1410 1409 1408 1408 1407 1407 1407 1406 1406 1406 1406 1405 1405 1404 1404 1403 1403 1402 1401 1400 1400 1399 1398 1397 1395 1393 1391 1389 1387 1385 1383 1382 1381 1379